Weather History for KOGA - May, 2014

Change the Weather History Date:

Sunday, May 4, 2014

  Actual Average Record
Temperature  
Mean Temperature 57 °F -  
Max Temperature 70 °F 69 °F 92 °F (1952)
Min Temperature 44 °F 39 °F 28 °F (1967)
Degree Days  
Heating Degree Days 8    
Growing Degree Days 7 (Base 50)    
Moisture  
Dew Point 41 °F    
Average Humidity 57    
Maximum Humidity 81    
Minimum Humidity 32    
Precipitation  
Precipitation 0.00 in - - ()
Sea Level Pressure  
Sea Level Pressure 29.83 in    
Wind  
Wind Speed 10 mph (East)    
Max Wind Speed 16 mph    
Max Gust Speed 20 mph    
Visibility 10 miles    
Events      
Averages and records for this station are not official NWS values.
T = Trace of Precipitation, MM = Missing Value Source: NWS Daily Summary

Daily Weather History Graph

Daily Weather History Graph

Search for Another Location

Airport or City:

Trip Planner

Search our weather history database for the weather conditions in past years. The results will help you decide how hot, cold, wet, or windy it might be!

Date:

Astronomy

May. 04, 2014 Rise Set
Actual Time 5:41 AM MDT 7:47 PM MDT
Civil Twilight 5:10 AM MDT 8:17 PM MDT
Nautical Twilight 4:33 AM MDT 8:54 PM MDT
Astronomical Twilight 3:53 AM MDT 9:35 PM MDT
Moon 10:06 AM MDT (5/4) No Moon Set
Length of Visible Light 15h 06m
Length of Day
14h 06m
Waxing Crescent, 28% of the Moon is Illuminated
May 4
Waxing Crescent
May 6
First Quarter
May 14
Full
May 21
Last Quarter
May 28
New

Hourly Weather History & Observations

Time (MDT) Temp. Windchill Dew Point Humidity Pressure Visibility Wind Dir Wind Speed Gust Speed Precip Events Conditions
12:15 AM 55.6 °F - 44.1 °F 65% 29.85 in 10.0 mi ESE 6.9 mph - N/A   Clear
12:35 AM 56.7 °F - 43.9 °F 62% 29.84 in 10.0 mi ESE 10.4 mph - N/A   Clear
12:55 AM 56.1 °F - 43.9 °F 64% 29.84 in 10.0 mi East 11.5 mph - N/A   Clear
1:15 AM 55.6 °F - 43.7 °F 64% 29.83 in 10.0 mi East 12.7 mph - N/A   Clear
1:35 AM 54.5 °F - 43.5 °F 66% 29.84 in 10.0 mi East 8.1 mph - N/A   Clear
1:55 AM 54.0 °F - 43.5 °F 68% 29.83 in 10.0 mi East 10.4 mph - N/A   Clear
2:15 AM 52.9 °F - 43.2 °F 70% 29.83 in 10.0 mi East 9.2 mph - N/A   Clear
2:35 AM 52.9 °F - 43.2 °F 70% 29.83 in 10.0 mi East 11.5 mph - N/A   Clear
2:55 AM 52.0 °F - 42.8 °F 71% 29.83 in 10.0 mi ENE 5.8 mph - N/A   Clear
3:15 AM 50.4 °F - 42.6 °F 75% 29.83 in 10.0 mi East 10.4 mph - N/A   Clear
3:35 AM 49.3 °F - 42.1 °F 76% 29.83 in 10.0 mi East 8.1 mph - N/A   Clear
3:55 AM 47.7 °F - 41.9 °F 80% 29.85 in 10.0 mi NNE 11.5 mph - N/A   Clear
4:15 AM 48.0 °F - 41.0 °F 77% 29.83 in 10.0 mi East 11.5 mph - N/A   Clear
4:35 AM 48.6 °F - 41.0 °F 75% 29.82 in 10.0 mi East 13.8 mph 18.4 mph N/A   Clear
4:55 AM 47.3 °F - 40.1 °F 76% 29.85 in 10.0 mi NE 11.5 mph 16.1 mph N/A   Clear
5:15 AM 45.9 °F 40.4 °F 39.9 °F 80% 29.84 in 10.0 mi East 11.5 mph - N/A   Clear
5:35 AM 45.5 °F 39.9 °F 39.6 °F 80% 29.86 in 10.0 mi East 11.5 mph - N/A   Clear
5:55 AM 44.8 °F 39.0 °F 39.4 °F 81% 29.86 in 10.0 mi East 11.5 mph - N/A   Clear
6:10 AM 44.6 °F 38.8 °F 39.2 °F 81% 29.88 in 10.0 mi ENE 11.5 mph 16.1 mph N/A   Clear
6:35 AM 44.8 °F 38.7 °F 39.0 °F 80% 29.88 in 10.0 mi ENE 12.7 mph - N/A   Clear
6:55 AM 46.2 °F 40.1 °F 39.0 °F 76% 29.88 in 10.0 mi East 13.8 mph 19.6 mph N/A   Clear
7:15 AM 46.9 °F - 39.2 °F 74% 29.87 in 10.0 mi East 16.1 mph - N/A   Clear
7:35 AM 47.5 °F - 39.2 °F 73% 29.86 in 10.0 mi East 12.7 mph - N/A   Clear
7:55 AM 49.1 °F - 39.4 °F 69% 29.89 in 10.0 mi ENE 15.0 mph - N/A   Clear
8:15 AM 50.2 °F - 39.6 °F 67% 29.89 in 10.0 mi East 13.8 mph - N/A   Clear
8:35 AM 50.2 °F - 39.2 °F 66% 29.88 in 10.0 mi ENE 12.7 mph - N/A   Clear
8:55 AM 51.4 °F - 39.7 °F 64% 29.88 in 10.0 mi East 11.5 mph - N/A   Clear
9:15 AM 51.1 °F - 39.4 °F 64% 29.88 in 10.0 mi East 11.5 mph 17.3 mph N/A   Clear
9:35 AM 52.7 °F - 39.6 °F 61% 29.88 in 10.0 mi East 9.2 mph 18.4 mph N/A   Clear
9:55 AM 54.3 °F - 39.4 °F 57% 29.88 in 10.0 mi ESE 11.5 mph - N/A   Clear
10:15 AM 55.4 °F - 39.4 °F 55% 29.88 in 10.0 mi East 8.1 mph - N/A   Clear
10:35 AM 57.2 °F - 39.6 °F 52% 29.88 in 10.0 mi East 9.2 mph - N/A   Clear
10:55 AM 58.5 °F - 39.7 °F 50% 29.88 in 10.0 mi ESE 8.1 mph 17.3 mph N/A   Clear
11:15 AM 58.6 °F - 38.8 °F 48% 29.88 in 10.0 mi ENE 3.5 mph - N/A   Clear
11:35 AM 61.7 °F - 40.1 °F 45% 29.87 in 10.0 mi East 10.4 mph 16.1 mph N/A   Clear
11:55 AM 60.4 °F - 39.4 °F 46% 29.87 in 10.0 mi East 9.2 mph - N/A   Clear
12:15 PM 61.2 °F - 39.7 °F 45% 29.86 in 10.0 mi ESE 9.2 mph - N/A   Clear
12:35 PM 63.0 °F - 39.7 °F 42% 29.85 in 10.0 mi East 10.4 mph - N/A   Clear
12:55 PM 63.5 °F - 38.8 °F 40% 29.85 in 10.0 mi ESE 10.4 mph - N/A   Clear
1:15 PM 64.6 °F - 39.7 °F 40% 29.84 in 10.0 mi East 11.5 mph 16.1 mph N/A   Clear
1:35 PM 65.8 °F - 39.6 °F 38% 29.83 in 10.0 mi ESE 11.5 mph - N/A   Clear
1:55 PM 67.3 °F - 39.9 °F 37% 29.82 in 10.0 mi ESE 11.5 mph 16.1 mph N/A   Clear
2:15 PM 68.4 °F - 39.9 °F 35% 29.81 in 10.0 mi ESE 10.4 mph 17.3 mph N/A   Clear
2:35 PM 68.5 °F - 39.2 °F 34% 29.82 in 10.0 mi SE 9.2 mph - N/A   Clear
2:55 PM 67.3 °F - 39.2 °F 36% 29.82 in 10.0 mi SE 6.9 mph - N/A   Clear
3:15 PM 68.9 °F - 40.3 °F 35% 29.81 in 10.0 mi SE 11.5 mph 16.1 mph N/A   Clear
3:35 PM 70.0 °F - 39.9 °F 33% 29.80 in 10.0 mi SE 10.4 mph - N/A   Clear
3:55 PM 70.3 °F - 39.2 °F 32% 29.79 in 10.0 mi SE 10.4 mph - N/A   Clear
4:15 PM 69.8 °F - 38.7 °F 32% 29.78 in 10.0 mi SE 12.7 mph - N/A   Clear
4:35 PM 69.8 °F - 39.4 °F 33% 29.78 in 10.0 mi SE 9.2 mph - N/A   Clear
4:55 PM 68.9 °F - 38.7 °F 33% 29.78 in 10.0 mi SE 11.5 mph - N/A   Clear
5:15 PM 68.4 °F - 39.4 °F 35% 29.78 in 10.0 mi SE 11.5 mph - N/A   Clear
5:35 PM 68.7 °F - 39.2 °F 34% 29.78 in 10.0 mi SE 12.7 mph 18.4 mph N/A   Clear
5:55 PM 67.8 °F - 39.7 °F 36% 29.77 in 10.0 mi ESE 15.0 mph - N/A   Clear
6:15 PM 68.0 °F - 39.9 °F 36% 29.77 in 10.0 mi SE 12.7 mph - N/A   Clear
6:35 PM 66.2 °F - 39.6 °F 38% 29.77 in 10.0 mi SE 12.7 mph - N/A   Clear
6:55 PM 65.5 °F - 40.3 °F 40% 29.76 in 10.0 mi SE 15.0 mph - N/A   Clear
7:15 PM 63.7 °F - 40.5 °F 43% 29.77 in 10.0 mi SSE 10.4 mph - N/A   Clear
7:35 PM 62.1 °F - 40.5 °F 45% 29.77 in 10.0 mi SE 8.1 mph - N/A   Clear
7:55 PM 60.3 °F - 40.8 °F 49% 29.77 in 10.0 mi ESE 8.1 mph - N/A   Clear
8:15 PM 58.1 °F - 41.4 °F 54% 29.77 in 10.0 mi ESE 5.8 mph - N/A   Clear
8:35 PM 56.3 °F - 41.5 °F 58% 29.77 in 10.0 mi SE 5.8 mph - N/A   Clear
8:55 PM 55.4 °F - 41.2 °F 59% 29.78 in 10.0 mi ESE 6.9 mph - N/A   Clear
9:15 PM 54.1 °F - 41.9 °F 63% 29.78 in 10.0 mi East 4.6 mph - N/A   Clear
9:35 PM 53.6 °F - 41.9 °F 65% 29.78 in 10.0 mi East 4.6 mph - N/A   Clear
9:55 PM 52.5 °F - 41.9 °F 67% 29.79 in 10.0 mi NE 4.6 mph - N/A   Clear
10:15 PM 53.2 °F - 41.9 °F 65% 29.79 in 10.0 mi ENE 9.2 mph - N/A   Clear
10:35 PM 52.5 °F - 41.5 °F 66% 29.79 in 10.0 mi ENE 5.8 mph - N/A   Clear
10:55 PM 50.4 °F - 40.8 °F 70% 29.81 in 10.0 mi ENE 3.5 mph - N/A   Clear
11:15 PM 49.3 °F - 41.2 °F 74% 29.84 in 10.0 mi NNE 9.2 mph - N/A   Clear
11:35 PM 50.5 °F - 41.7 °F 72% 29.85 in 10.0 mi NNE 9.2 mph - N/A   Clear
11:55 PM 51.4 °F - 41.5 °F 69% 29.86 in 10.0 mi NE 9.2 mph - N/A   Clear